User: anonymous   Login
Location: Banios
(43.0451°N, 0.2335°E)
Time: 02:48:43
(UTC+00:00)
Language:

SL-16 R/B - Orbit

View from above orbital plane
View from above orbital plane
View from above satellite
View from above satellite

Ground track
Ground track

The orbit data is extracted from the following two-line orbital elements,

1 28353U 04021B   21102.53889001  .00000103  00000-0  78807-4 0  9996
2 28353  71.0041  32.0522 0007163 249.9575 110.0776 14.14247133869429
Epoch (UTC): 12 April 2021 12:56:00
Eccentricity: 0.0007163
inclination: 71.0041°
perigee height: 840 km
apogee height: 850 km
right ascension of ascending node: 32.0522°
argument of perigee: 249.9575°
revolutions per day: 14.14247133
mean anomaly at epoch: 110.0776°
orbit number at epoch: 86942

The dashed part of the orbit path shows where the satellite is in the earth's shadow,  

DLR